Regional Weather Roundup
Issued by NWS

Home | Current Version | Previous Version | Graphics & Text | Print | Product List | Glossary On
Versions: 1 2 3 4 5 6 7 8 9 10 11 12 13 14 15 16 17 18 19 20 21 22 23 24 25 26 27 28 29 30 31 32 33 34 35 36 37 38 39 40 41 42 43 44 45 46 47 48 49 50
000
ASUS43 KTOP 171508
RWRKS

WEATHER ROUNDUP FOR KANSAS
NATIONAL WEATHER SERVICE GOODLAND KS
900 AM CST WED DEC 17 2014

NOTE:  "FAIR" INDICATES FEW OR NO CLOUDS BELOW 12,000 FEET WITH NO
SIGNIFICANT WEATHER AND/OR OBSTRUCTIONS TO VISIBILITY.

KSZ001>006-013>018-027>032-041>047-171600-
NORTHWEST KANSAS

CITY           SKY/WX    TMP DP  RH WIND       PRES   REMARKS
GOODLAND       FOG       22  22 100 E10       30.08S VSB 1/4 WCI  11
HAYS           CLOUDY    25  16  68 E14       30.21R WCI  13
HILL CITY      CLOUDY    23  20  88 E10       30.21S WCI  12
RUSSELL        CLOUDY    25  22  88 E14       30.22R WCI  13
$$

KSZ061>065-074>080-084>089-171600-
SOUTHWEST KANSAS

CITY           SKY/WX    TMP DP  RH WIND       PRES   REMARKS
DODGE CITY     MOSUNNY   30  24  78 SE18      30.13F WCI  18
ELKHART          N/A     32  25  76 S5          N/A
GARDEN CITY    MOSUNNY   29  25  85 SE16      30.07S WCI  17
GREAT BEND     CLOUDY    28  21  74 E12       30.22R WCI  18
LIBERAL        MOSUNNY   36  25  64 SE10      30.10R WCI  28
PRATT          CLOUDY    30  27  86 SE10      30.21R WCI  21
$$

KSZ066>073-081>083-090>101-171600-
SOUTHEAST KANSAS

CITY           SKY/WX    TMP DP  RH WIND       PRES   REMARKS
CHANUTE        CLOUDY    27  24  89 E5        30.34R
COFFEYVILLE    CLOUDY    30  25  81 CALM      30.36R
HUTCHINSON     CLOUDY    28  23  81 E9        30.26F
MEDICINE LODGE   N/A     31  26  82 SE9G17    30.22S
NEWTON         CLOUDY    27  19  74 SE13      30.29S WCI  16
PARSONS        CLOUDY    29  25  85 CALM      30.37R
WICHITA INTL   CLOUDY    30  23  75 E10       30.26F WCI  21
WICHITA JABRA  CLOUDY    28  23  81 E10       30.26F WCI  19
WICHITA MCCONL CLOUDY    29  24  81 E10       30.27F WCI  19
WINFIELD       CLOUDY    30  24  78 E10       30.29F WCI  21
$$

KSZ007>012-019>026-033>040-048>060-102>105-171600-
NORTHEAST KANSAS

CITY           SKY/WX    TMP DP  RH WIND       PRES   REMARKS
CONCORDIA      CLOUDY    23  20  88 E9        30.29S
EMPORIA        CLOUDY    24  22  91 E6        30.32R
LAWRENCE       CLOUDY    24  18  77 NE3       30.36F
MANHATTAN      CLOUDY    24  18  77 E9        30.32F
MARYSVILLE     CLOUDY    23  19  86 E6        30.32F
OLATHE IND     CLOUDY    25  20  81 N6        30.34S
OLATHE EXE     CLOUDY    26  20  77 CALM      30.34R
SALINA         CLOUDY    27  21  78 E9        30.30R
TOPEKA BILLARD CLOUDY    25  18  74 E7        30.35F
TOPEKA FORBES  CLOUDY    25  18  74 CALM      30.34S
$$


USA.gov is the U.S. government's official web portal to all federal, state and local government web resources and services.